Regional Weather Roundup
Issued by NWS Binghamton, NY

Home | Current Version | Previous Version | Text Only | Print | Product List | Glossary On
Versions: 1 2 3 4 5 6 7 8 9 10 11 12 13 14 15 16 17 18 19 20 21 22 23 24 25 26 27 28 29 30 31 32 33 34 35 36 37 38 39 40 41 42 43 44 45 46 47 48 49 50
000
ASUS41 KBGM 180210
RWRBGM
RWRBGM
BINGHAMTON REGIONAL WEATHER ROUNDUP
NATIONAL WEATHER SERVICE BINGHAMTON NY
900 PM EST WED DEC 17 2014

Note: "fair" indicates few or no clouds below 12,000 feet with no
significant weather and/or obstructions to visibility.

* = Station(s) that does not report precipitation, such as rain,
snow, etc, also no thunder or fog.

!NYZ009-015>018-022>025-036-037-044>046-055>057-062-180300
...CENTRAL NEW YORK...

CITY           SKY/WX    TMP DP  RH WIND       PRES   REMARKS
BINGHAMTON     CLOUDY    31  27  85 W12G26    29.87S WCI  22
CORTLAND       CLOUDY    32  32 100 W10       29.91S WCI  24
DANSVILLE      CLOUDY    34  26  72 N8        29.96F WCI  27
ELMIRA         CLOUDY    35  26  69 W16       29.93S WCI  25
ITHACA         MIX PCPN  34  28  79 NW14      29.92S WCI  25
HAMILTON       CLOUDY    34  30  86 NW6       29.87S WCI  29
MONTICELLO     CLOUDY    34  30  86 W12G21    29.87R WCI  25
NORWICH        CLOUDY    34  28  80 CALM      29.89S
ONEONTA        LGT SNOW  30  30 100 CALM      29.84R
PENN YAN       CLOUDY    35  25  66 W13G26    29.92S WCI  26
ROME           CLOUDY    33  32  96 W13       29.89S WCI  24
SIDNEY         CLOUDY    34  32  93 W6        29.89S WCI  29
SYRACUSE       FLURRIES  33  32  96 W21       29.91S WCI  21
$$

!PAZ038>040-043-044-047-048-072-180300
...NORTHEAST PENNSYLVANIA...

CITY           SKY/WX    TMP DP  RH WIND       PRES   REMARKS
HAZLETON       CLOUDY    32  25  74 W8G16     29.92F WCI  25
SCRANTON       CLOUDY    38  24  57 W15G24    29.91R WCI  29
TOWANDA*       CLOUDY    37  25  60 NW9       29.95S WCI  31
$$
&&
KEY
WCI = WIND CHILL INDEX
VSB = VISIBILITY
HX  = HEAT INDEX
$$


USA.gov is the U.S. government's official web portal to all federal, state and local government web resources and services.